• In Netherlands
  • List of Countries
  • For 7 days
  • Water Temperature
  • Satellite Maps
  • Weather Map
  • Weather Widgets
  • user-avatar
    Login

    Hourly Weather Córdoba

    Today, 25 February, Sunday

    Time Temperature Precipitation Wind Pressure Humidity
    00:00 +20°C° 0 mm 2 mps 725 mmHg 72%
    01:00 +19°C° 0 mm 2 mps 725 mmHg 72%
    02:00 +19°C° 0 mm 2 mps 725 mmHg 73%
    03:00 +19°C° 0 mm 2 mps 725 mmHg 72%
    04:00 +19°C° 0 mm 2 mps 725 mmHg 72%
    05:00 +19°C° 0 mm 2 mps 725 mmHg 72%
    06:00 +20°C° 0.1 mm 2 mps 726 mmHg 69%
    07:00 +20°C° 0.1 mm 2 mps 726 mmHg 67%
    08:00 +21°C° 0.1 mm 3 mps 726 mmHg 65%
    09:00 +22°C° 0.5 mm 3 mps 726 mmHg 62%
    10:00 +24°C° 0.5 mm 3 mps 726 mmHg 60%
    11:00 +25°C° 0.5 mm 3 mps 726 mmHg 58%
    12:00 +26°C° 0.4 mm 4 mps 726 mmHg 56%
    13:00 +26°C° 0.4 mm 4 mps 726 mmHg 54%
    14:00 +27°C° 0.4 mm 4 mps 725 mmHg 52%
    15:00 +27°C° 0.1 mm 3 mps 725 mmHg 51%
    16:00 +28°C° 0.1 mm 3 mps 724 mmHg 49%
    17:00 +28°C° 0.1 mm 3 mps 724 mmHg 47%
    18:00 +25°C° 0.1 mm 3 mps 724 mmHg 57%
    19:00 +23°C° 0.1 mm 2 mps 724 mmHg 66%
    20:00 +21°C° 0.1 mm 1 mps 724 mmHg 76%
    21:00 +19°C° 0.2 mm 2 mps 724 mmHg 77%
    22:00 +19°C° 0.2 mm 2 mps 724 mmHg 78%
    23:00 +19°C° 0.2 mm 2 mps 725 mmHg 79%

    Tomorrow, 26 February, Monday

    Time Temperature Precipitation Wind Pressure Humidity
    00:00 +19°C° 0.1 mm 2 mps 724 mmHg 78%
    01:00 +19°C° 0.1 mm 2 mps 724 mmHg 77%
    02:00 +19°C° 0.1 mm 2 mps 724 mmHg 76%
    03:00 +19°C° 0 mm 2 mps 724 mmHg 75%
    04:00 +20°C° 0 mm 1 mps 724 mmHg 74%
    05:00 +20°C° 0 mm 1 mps 724 mmHg 73%
    06:00 +21°C° 0 mm 1 mps 724 mmHg 69%
    07:00 +22°C° 0 mm 1 mps 724 mmHg 64%
    08:00 +24°C° 0 mm 1 mps 725 mmHg 60%
    09:00 +26°C° 0 mm 1 mps 725 mmHg 52%
    10:00 +29°C° 0 mm 1 mps 725 mmHg 45%
    11:00 +31°C° 0 mm 2 mps 725 mmHg 37%
    12:00 +32°C° 0 mm 1 mps 724 mmHg 35%
    13:00 +32°C° 0 mm 1 mps 723 mmHg 33%
    14:00 +33°C° 0 mm 1 mps 723 mmHg 31%
    15:00 +32°C° 0 mm 1 mps 722 mmHg 32%
    16:00 +32°C° 0 mm 2 mps 721 mmHg 33%
    17:00 +31°C° 0 mm 2 mps 721 mmHg 34%
    18:00 +29°C° 0 mm 1 mps 721 mmHg 39%
    19:00 +27°C° 0 mm 1 mps 721 mmHg 44%
    20:00 +25°C° 0 mm 1 mps 721 mmHg 49%
    21:00 +25°C° 0 mm 1 mps 722 mmHg 50%
    22:00 +24°C° 0 mm 1 mps 722 mmHg 51%
    23:00 +24°C° 0 mm 1 mps 722 mmHg 53%

    Day after tomorrow, 27 February, Tuesday

    Time Temperature Precipitation Wind Pressure Humidity
    00:00 +23°C° 0 mm 1 mps 722 mmHg 54%
    01:00 +23°C° 0 mm 1 mps 722 mmHg 54%
    02:00 +23°C° 0 mm 1 mps 722 mmHg 55%
    03:00 +22°C° 0.1 mm 1 mps 722 mmHg 57%
    04:00 +22°C° 0.1 mm 1 mps 721 mmHg 59%
    05:00 +22°C° 0.1 mm 1 mps 721 mmHg 61%
    06:00 +23°C° 0.1 mm 1 mps 722 mmHg 57%
    07:00 +25°C° 0.1 mm 1 mps 722 mmHg 53%
    08:00 +27°C° 0.1 mm 1 mps 723 mmHg 48%
    09:00 +29°C° 0.2 mm 1 mps 723 mmHg 44%
    10:00 +31°C° 0.2 mm 2 mps 723 mmHg 39%
    11:00 +34°C° 0.2 mm 3 mps 723 mmHg 34%
    12:00 +34°C° 0.4 mm 2 mps 723 mmHg 34%
    13:00 +34°C° 0.4 mm 2 mps 722 mmHg 35%
    14:00 +32°C° 0.4 mm 1 mps 722 mmHg 35%
    15:00 +31°C° 0.5 mm 2 mps 721 mmHg 40%
    16:00 +29°C° 0.5 mm 2 mps 721 mmHg 45%
    17:00 +28°C° 0.5 mm 3 mps 720 mmHg 50%
    18:00 +26°C° 1.1 mm 3 mps 721 mmHg 58%
    19:00 +24°C° 1.1 mm 3 mps 721 mmHg 65%
    20:00 +21°C° 1.1 mm 2 mps 721 mmHg 72%
    21:00 +21°C° 1 mm 2 mps 722 mmHg 73%
    22:00 +21°C° 1 mm 2 mps 722 mmHg 75%
    23:00 +20°C° 1 mm 2 mps 723 mmHg 76%

    28 February, Wednesday

    Time Temperature Precipitation Wind Pressure Humidity
    00:00 +20°C° 0.4 mm 2 mps 722 mmHg 76%
    01:00 +20°C° 0.4 mm 2 mps 722 mmHg 77%
    02:00 +20°C° 0.4 mm 2 mps 722 mmHg 77%
    03:00 +21°C° 0.3 mm 2 mps 722 mmHg 76%
    04:00 +21°C° 0.3 mm 2 mps 722 mmHg 75%
    05:00 +21°C° 0.3 mm 2 mps 722 mmHg 74%
    06:00 +23°C° 0.5 mm 2 mps 723 mmHg 72%
    07:00 +24°C° 0.5 mm 1 mps 723 mmHg 69%
    08:00 +25°C° 0.5 mm 1 mps 724 mmHg 67%
    09:00 +27°C° 0.3 mm 1 mps 724 mmHg 60%
    10:00 +28°C° 0.3 mm 2 mps 724 mmHg 53%
    11:00 +30°C° 0.3 mm 3 mps 724 mmHg 46%
    12:00 +30°C° 0.5 mm 3 mps 724 mmHg 45%
    13:00 +31°C° 0.5 mm 2 mps 723 mmHg 44%
    14:00 +31°C° 0.5 mm 2 mps 723 mmHg 42%
    15:00 +30°C° 0.8 mm 2 mps 722 mmHg 45%
    16:00 +30°C° 0.8 mm 2 mps 722 mmHg 47%
    17:00 +29°C° 0.8 mm 1 mps 722 mmHg 50%
    18:00 +28°C° 0.5 mm 1 mps 722 mmHg 54%
    19:00 +26°C° 0.5 mm 1 mps 722 mmHg 58%
    20:00 +25°C° 0.5 mm 1 mps 722 mmHg 63%
    21:00 +24°C° 0.2 mm 2 mps 723 mmHg 66%
    22:00 +23°C° 0.2 mm 2 mps 723 mmHg 69%
    23:00 +21°C° 0.2 mm 2 mps 723 mmHg 73%

    1 March, Thursday

    Time Temperature Precipitation Wind Pressure Humidity
    00:00 +21°C° 0.3 mm 2 mps 723 mmHg 73%
    01:00 +21°C° 0.3 mm 2 mps 723 mmHg 74%
    02:00 +21°C° 0.3 mm 2 mps 722 mmHg 75%
    03:00 +20°C° 0.8 mm 2 mps 722 mmHg 77%
    04:00 +20°C° 0.8 mm 2 mps 722 mmHg 79%
    05:00 +21°C° 0.8 mm 1 mps 723 mmHg 82%
    06:00 +22°C° 0.6 mm 1 mps 723 mmHg 79%
    07:00 +23°C° 0.6 mm 1 mps 724 mmHg 77%
    08:00 +24°C° 0.6 mm 2 mps 724 mmHg 74%
    09:00 +26°C° 0.4 mm 2 mps 724 mmHg 66%
    10:00 +28°C° 0.4 mm 2 mps 724 mmHg 58%
    11:00 +30°C° 0.4 mm 2 mps 724 mmHg 49%
    12:00 +31°C° 0.5 mm 2 mps 724 mmHg 46%
    13:00 +31°C° 0.5 mm 3 mps 723 mmHg 43%
    14:00 +33°C° 0.5 mm 3 mps 723 mmHg 40%
    15:00 +32°C° 0.4 mm 2 mps 723 mmHg 41%
    16:00 +32°C° 0.4 mm 2 mps 722 mmHg 42%
    17:00 +31°C° 0.4 mm 2 mps 722 mmHg 42%
    18:00 +29°C° 0.2 mm 1 mps 722 mmHg 47%
    19:00 +27°C° 0.2 mm 1 mps 722 mmHg 52%
    20:00 +25°C° 0.2 mm 1 mps 722 mmHg 57%
    21:00 +25°C° 0.1 mm 1 mps 723 mmHg 60%
    22:00 +24°C° 0.1 mm 2 mps 723 mmHg 62%
    23:00 +24°C° 0.1 mm 2 mps 723 mmHg 64%

    2 March, Friday

    Time Temperature Precipitation Wind Pressure Humidity
    00:00 +24°C° 0 mm 2 mps 723 mmHg 64%
    01:00 +24°C° 0 mm 2 mps 723 mmHg 64%
    02:00 +23°C° 0 mm 2 mps 722 mmHg 64%
    03:00 +23°C° 0 mm 2 mps 722 mmHg 65%
    04:00 +22°C° 0 mm 1 mps 722 mmHg 67%
    05:00 +22°C° 0 mm 1 mps 722 mmHg 68%
    06:00 +23°C° 0 mm 1 mps 722 mmHg 64%
    07:00 +25°C° 0 mm 1 mps 723 mmHg 60%
    08:00 +26°C° 0 mm 1 mps 724 mmHg 56%
    09:00 +29°C° 0 mm 1 mps 724 mmHg 49%
    10:00 +31°C° 0 mm 2 mps 724 mmHg 43%
    11:00 +34°C° 0 mm 2 mps 724 mmHg 37%
    12:00 +34°C° 0 mm 1 mps 723 mmHg 35%
    13:00 +35°C° 0 mm 1 mps 722 mmHg 32%
    14:00 +36°C° 0 mm 1 mps 722 mmHg 30%
    15:00 +35°C° 0 mm 1 mps 721 mmHg 30%
    16:00 +35°C° 0 mm 1 mps 721 mmHg 30%
    17:00 +35°C° 0 mm 1 mps 721 mmHg 30%
    18:00 +33°C° 0 mm 1 mps 721 mmHg 35%
    19:00 +30°C° 0 mm 1 mps 721 mmHg 40%
    20:00 +28°C° 0 mm 1 mps 721 mmHg 45%
    21:00 +27°C° 0 mm 2 mps 721 mmHg 47%
    22:00 +26°C° 0 mm 2 mps 722 mmHg 49%
    23:00 +26°C° 0 mm 2 mps 722 mmHg 51%
    Show more